星链-3857 (STARLINK-3857 )

导读 | 星芒AI

STARLINK-3857 是 SpaceX Starlink 卫星互联网项目中的第 3857 颗卫星。它属于星链计划的中轨道卫星群,旨在为全球用户提供高速互联网服务。该卫星于 2023 年发射,部署在约 550 公里的轨道高度,具备先进的通信技术和激光链路,以提升网络连接的稳定性和效率。作为星链星座的一部分,STARLINK-3857 有助于扩大覆盖范围,改善偏远地区的网络接入条件,并支持低延迟的全球通信需求。

基本信息
目录编号:
52494
目录名称:
STARLINK-3857
国际标识:
2022-049AV
轨道中心:
EARTH
卫星名称:
星链-3857
卫星全名:
星链-3857 (STARLINK-3857 )
卫星状态:
在轨 (已飞行1325 天)
发射日期:
2022-05-06 UTC
国别 :
美国 (US)
星等 :
--
轨道信息
数据来源 国际轨道数据
星历时间: 2025-12-20T18:53:32+0800
16小时前
查看轨道信息
半长轴: 6917.903km
偏心率: 0.0001344
轨道倾角: 53.219°
近地点辐角 90.038°
升交点赤经 44.826°
平近点角 270.076°
近地点: 538.836km
远地点: 540.696km
周期: 95.438分钟
每日圈数: 15.088327
详细信息
固有亮度:
5
最大亮度:
2.5
卫星平台:
Starlink v1.5
覆盖范围:
全球
运营商:
太空探索技术公司
运营商所在国:
美国
制造商(研发单位):
太空探索技术公司
制造商所在国:
美国
使用方式:
暂无
卫星简介
星链(Starlink)计划是由太空探索技术公司(SpaceX)提出的一个巨型低轨卫星互联网星座项目,计划在2019年至2024年间在太空搭建由约1.2万颗卫星组成的“星链”网络,其中1584颗将部署在地球上空550千米处的近地轨道,并从2020年开始工作。该卫星仍在工作。
2D轨道图
3D轨道图
轨道高度分析图
轨道倾角分析图
轨道综合分析图
查看轨道综合分析图